Tracking 19224 objects as of 23-Jul-2018
HD Live streaming from Space Station
objects crossing your sky now

FLOCK 1C 3

Track FLOCK 1C 3 now!
10-day predictions
FLOCK 1C 3 is classified as:


NORAD ID: 40041
Int'l Code: 2014-033AH
Perigee: 597.3 km
Apogee: 617.7 km
Inclination: 97.9 °
Period: 96.7 minutes
Semi major axis: 6978 km
RCS: Unknown
Launch date: June 19, 2014
Source: United States (US)
Launch site: Orenburg, Russia (OREN)
aabbcc
Your satellite tracking list
Your tracking list is empty




NASA's NSSDC Master Catalog

Two Line Element Set (TLE):
1 40041U 14033AH  18203.36456248 +.00000485 +00000-0 +57229-4 0  9998
2 40041 097.9204 121.0749 0014597 059.4774 300.7882 14.89220727221520
Source of the keplerian elements: AFSPC